sat.trackr.live / text

‹ back to catalog

STARLINK-1262

NORAD 45366 · 2020-019G

PAYLOAD ACTIVE UNKNOWN

§ Identity

Operator
Country
US
Launch date
2020-03-18
Launch site
AFETR
Launch vehicle
Mass (kg)
RCS (m²)

Purposes: comms

External: N2YO · Heavens-Above · Gunter

§ Orbital elements

Epoch: 2026-09-15T13:43:02.819424Z

Period
93.37 min
Inclination
53.1518°
Eccentricity
0.0001818
Mean motion
15.42312518 rev/d
Perigee alt
438.0 km
Apogee alt
440.5 km
Semi-major
6,817.4 km
B*
1.0039e-3
RAAN
356.9533°
Arg perigee
30.1540°
Mean anomaly
329.9570°
Rev number
35,891

§ Raw data

STARLINK-12621 45366U 20019G   26258.57156041  .00043748  00000+0  10039-2 0  99982 45366  53.1518 356.9533 0001818  30.1540 329.9570 15.42312518358917

JSON: /api/v1/satellites/45366 · /tle

For live sub-satellite position, see the globe view (requires WebGL).

§ Visibility from observer

Set your observer location to see the next 7 days of passes ≥ 10°. The values pass through the URL so the page stays shareable.

No JS? Fill the form by hand. The geolocation button needs JavaScript.